When you browse on this site, cookies collect data to enhance your experience and personalize the content and advertising you see.
Visit our Privacy Policy to learn more. By continuing to use the site, you agree to this use of cookies and data.
  • In Österreich
  • Länderverzeichnis
  • Für 7 Tage
  • Wassertemperatur
  • Satellitenkarten
  • Wetterkarte
  • News
  • Widgets
  • user-avatar
    Anmelden

    Stündliche Wetter Sankt Pölten

    Heute, 20 März, Mittwoch

    Zeit Temperatur Niederschläge Wind Luftdruck Luftfeuchtigkeit
    00:00 +3°C° 0 mm 1 m/S 746 mmHg 77%
    01:00 +2°C° 0 mm 1 m/S 746 mmHg 78%
    02:00 +2°C° 0 mm 1 m/S 746 mmHg 78%
    03:00 +2°C° 0 mm 1 m/S 746 mmHg 79%
    04:00 +1°C° 0 mm 1 m/S 747 mmHg 79%
    05:00 +2°C° 0 mm 1 m/S 747 mmHg 77%
    06:00 +2°C° 0 mm 1 m/S 747 mmHg 75%
    07:00 +3°C° 0 mm 1 m/S 748 mmHg 68%
    08:00 +5°C° 0 mm 1 m/S 748 mmHg 60%
    09:00 +7°C° 0 mm 1 m/S 748 mmHg 53%
    10:00 +8°C° 0 mm 1 m/S 748 mmHg 46%
    11:00 +9°C° 0 mm 1 m/S 748 mmHg 45%
    12:00 +9°C° 0 mm 1 m/S 748 mmHg 45%
    13:00 +10°C° 0 mm 1 m/S 748 mmHg 44%
    14:00 +10°C° 0 mm 1 m/S 748 mmHg 45%
    15:00 +9°C° 0 mm 1 m/S 748 mmHg 46%
    16:00 +9°C° 0 mm 1 m/S 747 mmHg 47%
    17:00 +8°C° 0 mm 1 m/S 748 mmHg 53%
    18:00 +6°C° 0 mm 1 m/S 748 mmHg 59%
    19:00 +3°C° 0 mm 0 m/S 748 mmHg 66%
    20:00 +4°C° 0 mm 1 m/S 748 mmHg 67%
    21:00 +3°C° 0 mm 1 m/S 749 mmHg 68%
    22:00 +3°C° 0 mm 1 m/S 749 mmHg 69%
    23:00 +3°C° 0 mm 1 m/S 749 mmHg 70%

    Morgen, 21 März, Donnerstag

    Zeit Temperatur Niederschläge Wind Luftdruck Luftfeuchtigkeit
    00:00 +2°C° 0 mm 1 m/S 750 mmHg 70%
    01:00 +2°C° 0 mm 1 m/S 750 mmHg 70%
    02:00 +2°C° 0 mm 1 m/S 749 mmHg 71%
    03:00 +2°C° 0 mm 1 m/S 749 mmHg 71%
    04:00 +2°C° 0 mm 1 m/S 749 mmHg 71%
    05:00 +2°C° 0 mm 1 m/S 749 mmHg 69%
    06:00 +3°C° 0 mm 1 m/S 750 mmHg 68%
    07:00 +3°C° 0 mm 1 m/S 750 mmHg 66%
    08:00 +6°C° 0 mm 1 m/S 750 mmHg 58%
    09:00 +9°C° 0 mm 1 m/S 749 mmHg 51%
    10:00 +11°C° 0 mm 1 m/S 749 mmHg 43%
    11:00 +12°C° 0 mm 1 m/S 749 mmHg 41%
    12:00 +13°C° 0 mm 2 m/S 749 mmHg 39%
    13:00 +14°C° 0 mm 2 m/S 748 mmHg 37%
    14:00 +14°C° 0 mm 2 m/S 748 mmHg 39%
    15:00 +14°C° 0 mm 2 m/S 747 mmHg 40%
    16:00 +14°C° 0 mm 2 m/S 747 mmHg 42%
    17:00 +10°C° 0 mm 2 m/S 747 mmHg 49%
    18:00 +8°C° 0 mm 2 m/S 747 mmHg 56%
    19:00 +7°C° 0 mm 1 m/S 747 mmHg 63%
    20:00 +7°C° 0 mm 1 m/S 747 mmHg 65%
    21:00 +6°C° 0 mm 1 m/S 747 mmHg 66%
    22:00 +6°C° 0 mm 1 m/S 748 mmHg 68%
    23:00 +5°C° 0 mm 1 m/S 748 mmHg 68%

    übermorgen, 22 März, Freitag

    Zeit Temperatur Niederschläge Wind Luftdruck Luftfeuchtigkeit
    00:00 +5°C° 0 mm 1 m/S 748 mmHg 68%
    01:00 +5°C° 0 mm 1 m/S 748 mmHg 68%
    02:00 +5°C° 0 mm 1 m/S 747 mmHg 68%
    03:00 +5°C° 0 mm 1 m/S 747 mmHg 68%
    04:00 +5°C° 0 mm 1 m/S 747 mmHg 68%
    05:00 +5°C° 0 mm 1 m/S 747 mmHg 67%
    06:00 +5°C° 0 mm 1 m/S 747 mmHg 66%
    07:00 +6°C° 0 mm 1 m/S 747 mmHg 65%
    08:00 +8°C° 0 mm 1 m/S 747 mmHg 58%
    09:00 +11°C° 0 mm 1 m/S 747 mmHg 51%
    10:00 +13°C° 0 mm 2 m/S 747 mmHg 44%
    11:00 +15°C° 0 mm 2 m/S 746 mmHg 41%
    12:00 +16°C° 0 mm 2 m/S 746 mmHg 39%
    13:00 +17°C° 0 mm 2 m/S 746 mmHg 36%
    14:00 +17°C° 0 mm 2 m/S 745 mmHg 38%
    15:00 +17°C° 0 mm 2 m/S 745 mmHg 40%
    16:00 +17°C° 0 mm 3 m/S 745 mmHg 42%
    17:00 +15°C° 0 mm 2 m/S 745 mmHg 49%
    18:00 +12°C° 0 mm 2 m/S 745 mmHg 57%
    19:00 +10°C° 0 mm 1 m/S 745 mmHg 64%
    20:00 +9°C° 0 mm 1 m/S 745 mmHg 65%
    21:00 +9°C° 0 mm 1 m/S 745 mmHg 67%
    22:00 +8°C° 0 mm 1 m/S 746 mmHg 68%
    23:00 +8°C° 0 mm 1 m/S 745 mmHg 68%

    23 März, Samstag

    Zeit Temperatur Niederschläge Wind Luftdruck Luftfeuchtigkeit
    00:00 +8°C° 0 mm 1 m/S 745 mmHg 67%
    01:00 +7°C° 0 mm 1 m/S 745 mmHg 67%
    02:00 +7°C° 0 mm 1 m/S 745 mmHg 67%
    03:00 +7°C° 0 mm 1 m/S 745 mmHg 66%
    04:00 +7°C° 0 mm 1 m/S 745 mmHg 65%
    05:00 +7°C° 0 mm 1 m/S 745 mmHg 65%
    06:00 +7°C° 0 mm 1 m/S 745 mmHg 64%
    07:00 +7°C° 0 mm 1 m/S 745 mmHg 64%
    08:00 +10°C° 0 mm 1 m/S 745 mmHg 58%
    09:00 +13°C° 0 mm 1 m/S 745 mmHg 52%
    10:00 +15°C° 0 mm 1 m/S 745 mmHg 46%
    11:00 +18°C° 0 mm 1 m/S 745 mmHg 44%
    12:00 +19°C° 0 mm 1 m/S 744 mmHg 42%
    13:00 +20°C° 0 mm 1 m/S 744 mmHg 41%
    14:00 +20°C° 0 mm 1 m/S 744 mmHg 42%
    15:00 +20°C° 0 mm 1 m/S 743 mmHg 43%
    16:00 +20°C° 0 mm 1 m/S 743 mmHg 45%
    17:00 +15°C° 0 mm 0 m/S 743 mmHg 52%
    18:00 +13°C° 0 mm 0 m/S 743 mmHg 59%
    19:00 +11°C° 0 mm 0 m/S 743 mmHg 67%
    20:00 +10°C° 0 mm 0 m/S 743 mmHg 69%
    21:00 +11°C° 0 mm 1 m/S 743 mmHg 71%
    22:00 +10°C° 0 mm 1 m/S 744 mmHg 72%
    23:00 +10°C° 0 mm 1 m/S 743 mmHg 74%

    24 März, Sonntag

    Zeit Temperatur Niederschläge Wind Luftdruck Luftfeuchtigkeit
    00:00 +10°C° 0 mm 1 m/S 743 mmHg 75%
    01:00 +9°C° 0 mm 1 m/S 743 mmHg 76%
    02:00 +9°C° 0 mm 1 m/S 743 mmHg 76%
    03:00 +9°C° 0 mm 1 m/S 743 mmHg 77%
    04:00 +8°C° 0 mm 1 m/S 742 mmHg 77%
    05:00 +9°C° 0 mm 1 m/S 742 mmHg 77%
    06:00 +9°C° 0 mm 1 m/S 742 mmHg 76%
    07:00 +9°C° 0 mm 1 m/S 742 mmHg 76%
    08:00 +11°C° 0 mm 1 m/S 742 mmHg 69%
    09:00 +13°C° 0 mm 1 m/S 742 mmHg 61%
    10:00 +16°C° 0 mm 1 m/S 742 mmHg 54%
    11:00 +18°C° 0 mm 1 m/S 741 mmHg 52%
    12:00 +18°C° 0 mm 2 m/S 741 mmHg 49%
    13:00 +19°C° 0 mm 2 m/S 740 mmHg 47%
    14:00 +18°C° 0 mm 2 m/S 740 mmHg 48%
    15:00 +18°C° 0 mm 2 m/S 739 mmHg 50%
    16:00 +19°C° 0 mm 1 m/S 739 mmHg 51%
    17:00 +16°C° 0 mm 1 m/S 739 mmHg 59%
    18:00 +13°C° 0 mm 0 m/S 739 mmHg 67%
    19:00 +11°C° 0 mm 0 m/S 739 mmHg 75%
    20:00 +10°C° 0 mm 0 m/S 739 mmHg 77%
    21:00 +11°C° 0 mm 1 m/S 739 mmHg 78%
    22:00 +11°C° 0 mm 1 m/S 739 mmHg 79%
    23:00 +10°C° 0 mm 1 m/S 739 mmHg 80%

    25 März, Montag

    Zeit Temperatur Niederschläge Wind Luftdruck Luftfeuchtigkeit
    00:00 +10°C° 0 mm 1 m/S 739 mmHg 81%
    01:00 +9°C° 0 mm 2 m/S 738 mmHg 82%
    02:00 +9°C° 0 mm 2 m/S 738 mmHg 84%
    03:00 +8°C° 0 mm 2 m/S 738 mmHg 87%
    04:00 +8°C° 0 mm 2 m/S 738 mmHg 89%
    05:00 +9°C° 0 mm 2 m/S 738 mmHg 89%
    06:00 +9°C° 0 mm 2 m/S 738 mmHg 89%
    07:00 +9°C° 0 mm 2 m/S 738 mmHg 89%
    08:00 +10°C° 0.2 mm 2 m/S 738 mmHg 83%
    09:00 +11°C° 0.2 mm 3 m/S 738 mmHg 78%
    10:00 +12°C° 0.2 mm 4 m/S 738 mmHg 72%
    11:00 +12°C° 0.3 mm 4 m/S 737 mmHg 71%
    12:00 +12°C° 0.3 mm 5 m/S 737 mmHg 71%
    13:00 +12°C° 0.3 mm 5 m/S 737 mmHg 70%
    14:00 +11°C° 0.3 mm 6 m/S 736 mmHg 67%
    15:00 +11°C° 0.3 mm 6 m/S 736 mmHg 64%
    16:00 +11°C° 0.3 mm 7 m/S 736 mmHg 60%
    17:00 +9°C° 0 mm 6 m/S 736 mmHg 62%
    18:00 +8°C° 0 mm 5 m/S 736 mmHg 64%
    19:00 +7°C° 0 mm 5 m/S 737 mmHg 66%
    20:00 +6°C° 0 mm 5 m/S 737 mmHg 69%
    21:00 +6°C° 0 mm 5 m/S 737 mmHg 71%
    22:00 +5°C° 0 mm 5 m/S 737 mmHg 73%
    23:00 +3°C° 0.2 mm 5 m/S 737 mmHg 72%
    Mehr zeigen